Location: K�ln
(50.9455°N, 6.9544°E)
Time: 06:36:05
(UTC+01:00)

Tiangong 1 - Visible Passes

Search period start: 23 November 2017 00:00
Search period end: 03 December 2017 00:00
Orbit: 284 x 308 km, 42.8° (Epoch: 22 November)

Date Brightness Start Highest point End Pass type
(mag) Time Alt. Az. Time Alt. Az. Time Alt. Az.
29 Nov 3.2 18:11:15 10° SSW 18:12:26 12° S 18:13:07 11° SSE visible
30 Nov 3.1 18:16:24 10° SSW 18:17:51 14° S 18:18:28 13° SSE visible
01 Dec 3.2 18:21:39 10° SW 18:23:06 14° S 18:23:43 13° SSE visible
02 Dec 3.3 18:26:57 10° SW 18:28:12 13° S 18:28:51 12° S visible
